TimeGMT,TemperatureF,Dew PointF,Humidity,Sea Level PressureIn,VisibilityMPH,Wind Direction,Wind SpeedMPH,Gust SpeedMPH,PrecipitationIn,Events,Conditions,WindDirDegrees,DateUTC
12:00 AM,45,40,78,29.90,12,ESE,24.6,,,,Partly Cloudy,120,2012-12-19 00:00:00
12:00 AM,44.6,41.0,87,29.89,6.2,SE,25.3,-,N/A,,Mostly Cloudy,130,2012-12-19 00:00:00
12:30 AM,44.6,39.2,81,29.89,6.2,SE,21.9,-,N/A,,Mostly Cloudy,130,2012-12-19 00:30:00
1:00 AM,44.6,39.2,81,29.89,6.2,SE,23.0,38.0,N/A,,Mostly Cloudy,140,2012-12-19 01:00:00
1:30 AM,44.6,39.2,81,29.89,6.2,SE,20.7,-,N/A,,Mostly Cloudy,130,2012-12-19 01:30:00
2:00 AM,44.6,39.2,81,29.86,6.2,SE,23.0,-,N/A,,Mostly Cloudy,130,2012-12-19 02:00:00
2:30 AM,44.6,39.2,81,29.83,6.2,SE,25.3,-,N/A,,Mostly Cloudy,130,2012-12-19 02:30:00
3:00 AM,44.6,39.2,81,29.80,6.2,SE,31.1,43.7,N/A,,Mostly Cloudy,130,2012-12-19 03:00:00
3:30 AM,44.6,39.2,81,29.80,6.2,SE,27.6,44.9,N/A,,Mostly Cloudy,130,2012-12-19 03:30:00
4:00 AM,44.6,39.2,81,29.80,6.2,SE,28.8,-,N/A,,Mostly Cloudy,130,2012-12-19 04:00:00
4:30 AM,44.6,39.2,81,29.77,6.2,SE,27.6,43.7,N/A,,Mostly Cloudy,130,2012-12-19 04:30:00
5:00 AM,44.6,41.0,87,29.77,6.2,SE,28.8,-,N/A,Rain,Light Rain,130,2012-12-19 05:00:00
5:30 AM,44.6,41.0,87,29.77,6.2,SE,26.5,41.4,N/A,Rain,Light Rain,130,2012-12-19 05:30:00
6:00 AM,45,42,85,29.77,11,SE,24.6,,,Rain,Light Rain,130,2012-12-19 06:00:00
6:00 AM,44.6,41.0,87,29.74,6.2,SE,24.2,-,N/A,Rain,Light Rain,130,2012-12-19 06:00:00
6:30 AM,44.6,42.8,93,29.74,6.2,SE,23.0,34.5,N/A,Rain,Light Rain,130,2012-12-19 06:30:00
7:00 AM,44.6,42.8,93,29.74,6.2,SE,20.7,-,N/A,Rain,Light Rain,130,2012-12-19 07:00:00
7:30 AM,44.6,42.8,93,29.71,6.2,SE,25.3,-,N/A,Rain,Light Rain,130,2012-12-19 07:30:00
8:00 AM,46.4,44.6,93,29.71,6.2,SE,27.6,-,N/A,Rain,Light Rain,130,2012-12-19 08:00:00
8:30 AM,46.4,44.6,93,29.71,5.0,SE,26.5,38.0,N/A,Rain,Light Rain,140,2012-12-19 08:30:00
9:00 AM,46.4,44.6,93,29.68,3.1,SE,32.2,-,N/A,Rain,Light Rain,140,2012-12-19 09:00:00
9:30 AM,46.4,44.6,93,29.71,1.9,SE,27.6,39.1,N/A,Rain,Light Rain,140,2012-12-19 09:30:00
10:00 AM,46.4,44.6,93,29.71,1.9,SE,27.6,39.1,N/A,Rain,Light Rain,130,2012-12-19 10:00:00
10:30 AM,46.4,44.6,93,29.71,4.3,SE,26.5,-,N/A,Rain,Light Rain,130,2012-12-19 10:30:00
11:00 AM,46.4,44.6,93,29.71,4.3,SE,25.3,38.0,N/A,Rain,Light Rain,140,2012-12-19 11:00:00
11:30 AM,46.4,44.6,93,29.71,4.3,SE,26.5,39.1,N/A,Rain,Light Rain,140,2012-12-19 11:30:00
12:00 PM,46,45,96,29.72,4,SE,24.6,,,Rain,Light Rain,140,2012-12-19 12:00:00
12:00 PM,46.4,44.6,93,29.71,4.3,SE,24.2,-,N/A,Rain,Light Rain,140,2012-12-19 12:00:00
12:30 PM,46.4,44.6,93,29.71,5.0,SE,23.0,34.5,N/A,Rain,Light Rain,140,2012-12-19 12:30:00
1:00 PM,46.4,44.6,93,29.71,5.0,SE,20.7,-,N/A,,Light Drizzle,140,2012-12-19 13:00:00
1:30 PM,48.2,46.4,93,29.71,6.2,SE,19.6,-,N/A,,Mostly Cloudy,140,2012-12-19 13:30:00
2:00 PM,48.2,46.4,93,29.68,6.2,SE,16.1,-,N/A,,Mostly Cloudy,130,2012-12-19 14:00:00
2:30 PM,48.2,46.4,93,29.68,6.2,SE,16.1,-,N/A,,Mostly Cloudy,130,2012-12-19 14:30:00
3:00 PM,48.2,46.4,93,29.68,6.2,SE,16.1,-,N/A,,Mostly Cloudy,140,2012-12-19 15:00:00
3:30 PM,48.2,46.4,93,29.68,6.2,SE,12.7,-,N/A,,Mostly Cloudy,140,2012-12-19 15:30:00
4:00 PM,48.2,46.4,93,29.68,6.2,SE,10.4,-,N/A,,Mostly Cloudy,140,2012-12-19 16:00:00
4:30 PM,48.2,46.4,93,29.68,5.6,SE,11.5,-,N/A,,Mostly Cloudy,130,2012-12-19 16:30:00
5:00 PM,48.2,46.4,93,29.68,5.6,SE,12.7,-,N/A,,Mostly Cloudy,140,2012-12-19 17:00:00
5:30 PM,48.2,46.4,93,29.68,3.7,SE,11.5,-,N/A,,Mostly Cloudy,140,2012-12-19 17:30:00
6:00 PM,47,47,100,29.70,3,SSE,8.9,,,,Mist,150,2012-12-19 18:00:00
6:00 PM,48.2,46.4,93,29.68,3.1,SSE,8.1,-,N/A,,Mostly Cloudy,150,2012-12-19 18:00:00
6:30 PM,48.2,46.4,93,29.68,1.9,SSE,5.8,-,N/A,,Mostly Cloudy,150,2012-12-19 18:30:00
7:00 PM,48.2,46.4,93,29.68,1.1,SE,6.9,-,N/A,,Mostly Cloudy,140,2012-12-19 19:00:00
7:30 PM,48.2,48.2,100,29.68,0.5,SE,6.9,-,N/A,Fog,Fog,130,2012-12-19 19:30:00
8:00 PM,48.2,46.4,93,29.68,0.6,SE,8.1,-,N/A,Fog,Fog,130,2012-12-19 20:00:00
8:30 PM,48.2,46.4,93,29.68,2.8,SE,6.9,-,N/A,,Mostly Cloudy,130,2012-12-19 20:30:00
9:00 PM,46.4,46.4,100,29.65,-9999.0,SE,6.9,-,N/A,,Mostly Cloudy,140,2012-12-19 21:00:00
9:30 PM,46.4,46.4,100,29.65,1.1,SE,6.9,-,N/A,,Mostly Cloudy,140,2012-12-19 21:30:00
10:00 PM,46.4,46.4,100,29.65,1.4,SE,8.1,-,N/A,,Mostly Cloudy,130,2012-12-19 22:00:00
10:30 PM,46.4,46.4,100,29.65,1.6,ESE,8.1,-,N/A,,Mostly Cloudy,120,2012-12-19 22:30:00
11:00 PM,46.4,46.4,100,29.65,3.1,SE,6.9,-,N/A,,Mostly Cloudy,130,2012-12-19 23:00:00
11:30 PM,46.4,46.4,100,29.65,1.1,ESE,6.9,-,N/A,Fog,Fog,110,2012-12-19 23:30:00